Newton Municipal
Sunday 3:15 PM
Temperature75° (75°/54°)
Dew Point50°
Relative Humidity41
%
Visibility10
mi
Pressure1023.7
mb
Wind DirectionSSE
150°
Wind Speed12
mph
Precipitation Today0.00"

Last 30 Observations

Time PresWx Temp DP Feels RH% Vsby Pressure Ceiling Direction Speed 1h Precip
3:15 PM 75° 50° 41
%
10
mi
1023.7
mb
SSE
150°
11
mph
0.00"
2:55 PM 75° 48° 38
%
10
mi
1024.1
mb
S
170°
13
mph
0.00"
2:35 PM 73° 48° 41
%
10
mi
1024.4
mb
SSW
210°
10
mph
0.00"
2:15 PM 73° 50° 44
%
10
mi
1024.7
mb
10,000
ft
S
190°
9
mph
0.00"
1:55 PM 73° 48° 41
%
10
mi
1025.1
mb
8,000
ft
S
180°
9
mph
0.00"
1:35 PM 73° 46° 38
%
10
mi
1025.1
mb
8,000
ft
S
180°
10
mph
0.00"
1:15 PM 72° 46° 41
%
10
mi
1025.4
mb
S
170°
8
mph
0.00"
12:55 PM 72° 46° 41
%
10
mi
1025.4
mb
S
180°
11
mph
0.00"
12:35 PM 73° 46° 38
%
10
mi
1025.7
mb
S
190°
11
mph
0.00"
12:15 PM 72° 46° 41
%
10
mi
1025.7
mb
8,500
ft
SSE
150°
11
mph
0.00"
11:55 AM 72° 46° 41
%
10
mi
1026.1
mb
8,000
ft
SSE
160°
8
mph
0.00"
11:35 AM 70° 46° 43
%
10
mi
1026.1
mb
S
190°
11
mph
0.00"
11:15 AM 70° 46° 43
%
10
mi
1026.1
mb
9,000
ft
S
170°
13
mph
0.00"
10:55 AM 70° 46° 43
%
10
mi
1026.4
mb
S
170°
13
mph
0.00"
10:35 AM 68° 46° 46
%
10
mi
1026.4
mb
8,000
ft
SE
140°
11
mph
0.00"
10:15 AM 66° 46° 49
%
10
mi
1026.4
mb
8,500
ft
SE
130°
11
mph
0.00"
9:55 AM 66° 46° 49
%
10
mi
1026.8
mb
8,000
ft
SSE
150°
11
mph
0.00"
9:35 AM 64° 46° 52
%
10
mi
1026.8
mb
8,000
ft
SSE
150°
11
mph
0.00"
9:15 AM 64° 46° 52
%
10
mi
1026.8
mb
8,500
ft
SSE
150°
9
mph
0.00"
8:55 AM 63° 46° 55
%
10
mi
1026.8
mb
8,000
ft
SE
140°
9
mph
0.00"
8:35 AM 63° 48° 59
%
10
mi
1026.8
mb
SE
130°
7
mph
0.00"
8:15 AM 61° 48° 63
%
10
mi
1026.4
mb
SE
140°
8
mph
0.00"
7:55 AM 59° 48° 67
%
10
mi
1026.4
mb
8,000
ft
ESE
120°
7
mph
0.00"
7:35 AM 59° 50° 72
%
10
mi
1026.4
mb
8,000
ft
ESE
120°
7
mph
0.00"
7:15 AM 57° 50° 77
%
10
mi
1026.4
mb
8,000
ft
E
90°
7
mph
0.00"
6:55 AM 57° 52° 82
%
10
mi
1026.1
mb
8,500
ft
E
90°
7
mph
0.00"
6:35 AM 57° 50° 77
%
10
mi
1025.4
mb
8,500
ft
ESE
110°
7
mph
0.00"
6:15 AM 55° 50° 82
%
10
mi
1025.4
mb
8,000
ft
E
90°
6
mph
0.00"
5:55 AM 54° 50° 88
%
10
mi
1025.1
mb
11,000
ft
E
90°
6
mph
0.00"
5:35 AM 54° 50° 88
%
10
mi
1024.7
mb
11,000
ft
E
90°
7
mph
0.00"